sat.trackr.live / text

‹ back to catalog

JILIN-1 GAOFEN 2F

NORAD 49338 · 2021-097A

PAYLOAD ACTIVE UNKNOWN

§ Identity

Operator
Country
PRC
Launch date
2021-10-27
Launch site
JSC
Launch vehicle
Mass (kg)
RCS (m²)

External: N2YO · Heavens-Above · Gunter

§ Orbital elements

Epoch: 2026-05-25T04:53:54.791232Z

Period
95.52 min
Inclination
97.6671°
Eccentricity
0.0017306
Mean motion
15.07569931 rev/d
Perigee alt
531.6 km
Apogee alt
555.6 km
Semi-major
6,921.8 km
B*
2.0254e-4
RAAN
271.4695°
Arg perigee
308.2850°
Mean anomaly
51.6820°
Rev number
25,285

§ Raw data

JILIN-1 GAOFEN 2F1 49338U 21097A   26145.20410638  .00003025  00000+0  20254-3 0  99932 49338  97.6671 271.4695 0017306 308.2850  51.6820 15.07569931252852

JSON: /api/v1/satellites/49338 · /tle

For live sub-satellite position, see the globe view (requires WebGL).

§ Visibility from observer

Set your observer location to see the next 7 days of passes ≥ 10°. The values pass through the URL so the page stays shareable.

No JS? Fill the form by hand. The geolocation button needs JavaScript.

§ Radio — SatNOGS DB

ModeDescriptionDownlinkUplink
BPSK S-band telemetry 2.228 GHz

1 transmitter · refreshed weekly from db.satnogs.org